This demonstration page uses our WeatherBlox Daily Observations layout. Learn more.

Left ArrowRight Arrow

38.83388, -104.82136

Hourly Observations for March 17, 2021

Temp ( °F °C ) Dew Point ( °F °C ) Humidity (%) Winds ( mph kmh ) Pressure ( in mb ) Visibility ( mi km ) Precip ( " mm )
12:40 am 00:40 Cloudy with Mist and Fog 27 -3 25 -4 93 93 N 8 13 29.65 1004 6 10 0.00 0.00
12:58 am 00:58 Cloudy with Mist and Fog 26 -3.6 24 -4.3 95 95 N 12 19 29.66 1005 5 8 0.00 0.00
1:56 am 01:56 Cloudy with Mist and Fog 25 -3.7 25 -3.8 99 99 N 10 17 29.65 1004 6 10 0.00 0.00
2:17 am 02:17 Mostly Cloudy 27 -3 25 -4 93 93 N 13 20 29.64 1004 10 16 0.00 0.00
2:50 am 02:50 Cloudy 25 -4 25 -4 100 100 N 12 19 29.67 1005 8 13 0.00 0.00
2:56 am 02:56 Cloudy 26 -3.6 25 -4.1 96 96 N 12 19 29.67 1005 8 13 0.00 0.00
3:01 am 03:01 Cloudy 25 -4 25 -4 100 100 N 14 22 29.67 1005 9 14 0.00 0.00
3:16 am 03:16 Cloudy 25 -4 25 -4 100 100 NNW 12 19 29.67 1005 10 16 0.00 0.00
3:31 am 03:31 Cloudy 25 -4 23 -5 93 93 NNW 15 24 29.66 1004 10 16 0.00 0.00
3:41 am 03:41 Cloudy 25 -4 23 -5 93 93 N 16 26 29.65 1004 10 16 0.00 0.00
3:57 am 03:57 Mostly Cloudy 25 -4 23 -5 93 93 N 17 28 29.66 1004 10 16 0.00 0.00
3:58 am 03:58 Mostly Cloudy 25 -3.8 24 -4.7 94 94 N 16 26 29.66 1004 10 16 0.00 0.00
4:58 am 04:58 Mostly Cloudy 26 -3.1 22 -5.4 84 84 NW 10 17 29.66 1005 10 16 0.00 0.00
5:03 am 05:03 Mostly Cloudy 27 -3 21 -6 80 80 NW 7 11 29.66 1005 10 16 0.00 0.00
5:53 am 05:53 Mostly Cloudy with Mist and Fog 25 -4 23 -5 93 93 NNW 7 11 29.71 1006 5 8 0.00 0.00
5:58 am 05:58 Cloudy with Mist and Fog 24 -4.4 23 -5 96 96 NW 7 11 29.71 1006 5 8 0.00 0.00
6:03 am 06:03 Cloudy with Mist and Fog 25 -4 23 -5 93 93 NNW 6 9 29.71 1006 6 10 0.00 0.00
6:58 am 06:58 Cloudy 25 -4 23 -5.1 92 92 N 5 7 29.75 1008 10 16 0.00 0.00
7:43 am 07:43 Partly Cloudy 27 -3 21 -6 80 80 Calm 29.77 1008 10 16 0.00 0.00
7:58 am 07:58 Mostly Sunny 26 -3.4 22 -5.3 87 87 Calm 29.78 1009 10 16 0.00 0.00
8:56 am 08:56 Mostly Cloudy 28 -2.1 22 -5.8 76 76 NE 6 9 29.80 1009 10 16 0.00 0.00
9:31 am 09:31 Cloudy 28 -2 21 -6 74 74 N 9 15 29.81 1010 10 16 0.00 0.00
9:56 am 09:56 Mostly Cloudy 29 -1.4 20 -6.7 68 68 N 15 24 29.79 1009 10 16 0.00 0.00
10:53 am 10:53 Partly Cloudy 32 0 23 -5 69 69 NNE 14 22 29.80 1009 10 16 0.00 0.00
10:58 am 10:58 Mostly Cloudy 33 0.3 21 -6.2 62 62 N 15 24 29.80 1009 10 16 0.00 0.00
11:13 am 11:13 Mostly Cloudy 32 0 21 -6 64 64 NNE 15 24 29.81 1009 10 16 0.00 0.00
11:23 am 11:23 Mostly Cloudy 32 0 21 -6 64 64 N 15 24 29.81 1009 10 16 0.00 0.00
11:58 am 11:58 Mostly Cloudy 32 0 20 -6.6 62 62 N 21 33 29.82 1010 10 16 0.00 0.00
12:58 pm 12:58 Mostly Cloudy 33 0.6 17 -8.5 51 51 N 23 37 29.82 1010 10 16 0.00 0.00
1:58 pm 13:58 Mostly Cloudy 35 1.4 14 -10.2 42 42 N 16 26 29.82 1010 10 16 0.00 0.00
2:58 pm 14:58 Mostly Sunny 37 3 13 -10.8 36 36 NNE 15 24 29.96 1015 10 16 0.00 0.00
3:58 pm 15:58 Sunny 37 2.5 16 -9.1 42 42 N 9 15 29.82 1010 10 16 0.00 0.00
4:58 pm 16:58 Sunny 34 1.1 15 -9.5 45 45 NNW 9 15 29.85 1011 10 16 0.00 0.00
5:58 pm 17:58 Sunny 33 0.3 14 -10.2 46 46 NNW 12 19 29.88 1012 10 16 0.00 0.00
6:58 pm 18:58 Sunny 31 -0.5 15 -9.5 51 51 NNW 9 15 29.90 1013 10 16 0.00 0.00
7:58 pm 19:58 Mostly Clear 30 -1.1 15 -9.2 55 55 NW 14 22 29.92 1013 10 16 0.00 0.00
8:58 pm 20:58 Clear 29 -1.4 15 -9.6 54 54 NW 9 15 29.93 1014 10 16 0.00 0.00
9:58 pm 21:58 Clear 30 -1 15 -9.2 54 54 NW 8 13 29.94 1014 10 16 0.00 0.00
11:58 pm 23:58 Clear 27 -2.9 16 -9.1 63 63 Calm 29.98 1015 10 16 0.00 0.00

Powered by AerisWeather